This is the latest recevied weather packets stored in our database for station/object WA4IKQ. If no packets are shown the sender has not sent any weather packets the latest 10 day(s).
| Time | Temp. | Humidity | Pressure | Rain* | Wind** | Luminosity | Snow |
|---|---|---|---|---|---|---|---|
| 1778090450 | 33.33° C | 39% | 1016.3 hPa | 0 mm | 2.24 m/s, 260° | - | - |
| 1778090208 | 32.78° C | 39% | 1016.3 hPa | 0 mm | 2.24 m/s, 174° | - | - |
| 1778089928 | 32.78° C | 40% | 1016.4 hPa | 0 mm | 2.24 m/s, 156° | - | - |
| 1778089848 | 32.78° C | 40% | 1016.4 hPa | 0 mm | 2.24 m/s, 156° | - | - |
| 1778089608 | 32.22° C | 41% | 1016.5 hPa | 0 mm | 1.79 m/s, 170° | - | - |
| 1778089548 | 32.22° C | 41% | 1016.5 hPa | 0 mm | 1.79 m/s, 170° | - | - |
| 1778089408 | 32.22° C | 41% | 1016.6 hPa | 0 mm | 1.79 m/s, 131° | - | - |
| 1778089255 | 32.22° C | 41% | 1016.6 hPa | 0 mm | 1.79 m/s, 131° | - | - |
| 1778089090 | 32.22° C | 40% | 1016.6 hPa | 0 mm | 0 m/s | - | - |
| 1778088716 | 32.22° C | 40% | 1016.7 hPa | 0 mm | 1.34 m/s, 274° | - | - |
| 1778088649 | 32.22° C | 40% | 1016.7 hPa | 0 mm | 1.34 m/s, 274° | - | - |
| 1778088473 | 32.22° C | 41% | 1016.8 hPa | 0 mm | 1.34 m/s, 117° | - | - |
| 1778088349 | 32.22° C | 41% | 1016.8 hPa | 0 mm | 1.34 m/s, 117° | - | - |
| 1778087801 | 32.22° C | 42% | 1016.9 hPa | 0 mm | 0 m/s | - | - |
| 1778087747 | 32.22° C | 42% | 1016.9 hPa | 0 mm | 0 m/s | - | - |
| 1778087525 | 31.67° C | 43% | 1016.9 hPa | 0 mm | 2.68 m/s, 169° | - | - |
| 1778087262 | 31.67° C | 42% | 1016.9 hPa | 0 mm | 2.68 m/s, 150° | - | - |
| 1778087148 | 31.67° C | 42% | 1016.9 hPa | 0 mm | 2.68 m/s, 150° | - | - |
| 1778086977 | 31.67° C | 43% | 1017 hPa | 0 mm | 2.68 m/s, 177° | - | - |
| 1778086931 | 31.67° C | 43% | 1017 hPa | 0 mm | 2.68 m/s, 177° | - | - |
| 1778086848 | 31.67° C | 43% | 1017 hPa | 0 mm | 2.68 m/s, 177° | - | - |
| 1778086601 | 31.67° C | 44% | 1017 hPa | 0 mm | 3.58 m/s, 170° | - | - |
| 1778086548 | 31.67° C | 44% | 1017 hPa | 0 mm | 3.58 m/s, 170° | - | - |
| 1778086355 | 31.11° C | 44% | 1017.1 hPa | 0 mm | 2.24 m/s, 193° | - | - |
| 1778086249 | 31.11° C | 44% | 1017.1 hPa | 0 mm | 2.24 m/s, 193° | - | - |
* Rain latest hour (hover to see other rain measurements)
** Current wind speed in m/s (hover to see current wind gust speed)